Yuma MCAS, AZ

1:24 PM MST on May 24, 2017 (GMT -0700)
Yuma Marine Corps Air Station

Weather History for KNYL - May, 2013

Change the Weather History Date:

Monday, May 27, 2013

  Actual Average Record
Temperature  
Mean Temperature 85 °F 84 °F  
Max Temperature 96 °F 99 °F 114 °F (1951)
Min Temperature 73 °F 70 °F 49 °F (1911)
Degree Days  
Heating Degree Days 0 0  
Month to date heating degree days 0 0  
Since 1 July heating degree days 705 686  
Cooling Degree Days 20 19  
Month to date cooling degree days 464 427  
Year to date cooling degree days 983 833  
Growing Degree Days 34 (Base 50)    
Moisture  
Dew Point 36 °F    
Average Humidity 18    
Maximum Humidity 26    
Minimum Humidity 9    
Precipitation  
Precipitation 0.00 in 0.00 in 0.05 in (1981)
Month to date precipitation 0.00 0.07  
Year to date precipitation 1.11 1.31  
Sea Level Pressure  
Sea Level Pressure 29.76 in    
Wind  
Wind Speed 6 mph (West)    
Max Wind Speed 15 mph    
Max Gust Speed 21 mph    
Visibility 10 miles    
Events      
T = Trace of Precipitation, MM = Missing Value Source: NWS Daily Summary

Daily Weather History Graph

Daily Weather History Graph

Search for Another Location

Airport or City:

Trip Planner

Search our weather history database for the weather conditions in past years. The results will help you decide how hot, cold, wet, or windy it might be!

Date:

Astronomy

May. 27, 2013 Rise Set
Actual Time 5:33 AM MST 7:38 PM MST
Civil Twilight 5:05 AM MST 8:06 PM MST
Nautical Twilight 4:31 AM MST 8:40 PM MST
Astronomical Twilight 3:55 AM MST 9:16 PM MST
Moon 10:25 PM MST (5/27) 8:12 AM MST (5/27)
Length of Visible Light 15h 01m
Length of Day
14h 05m
Waning Gibbous, 90% of the Moon is Illuminated
May 27
Waning Gibbous
May 31
Last Quarter
Jun 8
New
Jun 16
First Quarter
Jun 23
Full

Hourly Weather History & Observations

Time (MST) Temp. Dew Point Humidity Pressure Visibility Wind Dir Wind Speed Gust Speed Precip Events Conditions
12:57 AM 75.9 °F 36.0 °F 23% 29.83 in 10.0 mi SSE 4.6 mph - N/A   Mostly Cloudy
1:57 AM 75.0 °F 36.0 °F 24% 29.82 in 10.0 mi Calm Calm - N/A   Mostly Cloudy
2:57 AM 75.0 °F 37.9 °F 26% 29.81 in 10.0 mi NW 5.8 mph - N/A   Mostly Cloudy
3:57 AM 73.9 °F 36.0 °F 25% 29.81 in 10.0 mi Calm Calm - N/A   Mostly Cloudy
4:57 AM 73.9 °F 35.1 °F 24% 29.81 in 10.0 mi Calm Calm - N/A   Mostly Cloudy
5:57 AM 73.9 °F 34.0 °F 23% 29.81 in 10.0 mi NW 5.8 mph - N/A   Mostly Cloudy
6:57 AM 75.0 °F 35.1 °F 23% 29.81 in 10.0 mi NW 5.8 mph - N/A   Mostly Cloudy
7:57 AM 77.0 °F 36.0 °F 23% 29.81 in 10.0 mi NW 5.8 mph - N/A   Mostly Cloudy
8:57 AM 80.1 °F 39.9 °F 24% 29.82 in 10.0 mi West 8.1 mph - N/A   Mostly Cloudy
9:57 AM 81.0 °F 39.9 °F 23% 29.81 in 10.0 mi West 4.6 mph - N/A   Scattered Clouds
10:57 AM 86.0 °F 37.9 °F 18% 29.81 in 10.0 mi North 4.6 mph - N/A   Partly Cloudy
11:57 AM 88.0 °F 36.0 °F 16% 29.81 in 10.0 mi WSW 6.9 mph - N/A   Partly Cloudy
12:57 PM 91.0 °F 30.9 °F 12% 29.79 in 10.0 mi WSW 8.1 mph - N/A   Partly Cloudy
1:57 PM 91.9 °F 32.0 °F 12% 29.77 in 10.0 mi West 11.5 mph 16.1 mph N/A   Clear
2:57 PM 95.0 °F 28.0 °F 9% 29.74 in 10.0 mi West 11.5 mph - N/A   Clear
3:57 PM 96.1 °F 28.9 °F 9% 29.71 in 10.0 mi WSW 13.8 mph 18.4 mph N/A   Clear
4:57 PM 95.0 °F 30.0 °F 10% 29.69 in 10.0 mi WSW 9.2 mph - N/A   Clear
5:57 PM 93.9 °F 30.9 °F 11% 29.67 in 10.0 mi WSW 8.1 mph - N/A   Clear
6:57 PM 93.0 °F 33.1 °F 12% 29.67 in 10.0 mi WSW 4.6 mph - N/A   Partly Cloudy
7:57 PM 90.0 °F 34.0 °F 14% 29.67 in 10.0 mi WSW 4.6 mph - N/A   Partly Cloudy
8:57 PM 84.0 °F 43.0 °F 24% 29.68 in 10.0 mi SSW 9.2 mph - N/A   Partly Cloudy
9:57 PM 82.0 °F 44.1 °F 26% 29.70 in 10.0 mi West 5.8 mph - N/A   Partly Cloudy
10:57 PM 80.1 °F 42.1 °F 26% 29.71 in 10.0 mi WSW 4.6 mph - N/A   Partly Cloudy
11:57 PM 77.0 °F 44.1 °F 31% 29.70 in 10.0 mi SSW 4.6 mph - N/A   Partly Cloudy